This is the latest recevied weather packets stored in our database for station/object SQ9PDE-13. If no packets are shown the sender has not sent any weather packets the latest 10 day(s).
| Time | Temp. | Humidity | Pressure | Rain* | Wind** | Luminosity | Snow |
|---|---|---|---|---|---|---|---|
| 1778044314 | 16.67° C | 64% | 1005.2 hPa | - | - | - | - |
| 1778044073 | 16.67° C | 64% | 1005.6 hPa | - | - | - | - |
| 1778044013 | 16.67° C | 64% | 1005.6 hPa | - | - | - | - |
| 1778043713 | 17.22° C | 64% | 1006.3 hPa | - | - | - | - |
| 1778043412 | 17.78° C | 69% | 1006.3 hPa | - | - | - | - |
| 1778043112 | 17.78° C | 69% | 1005.9 hPa | - | - | - | - |
| 1778042873 | 17.22° C | 71% | 1005.9 hPa | - | - | - | - |
| 1778042842 | 17.22° C | 71% | 1005.9 hPa | - | - | - | - |
| 1778042811 | 17.22° C | 71% | 1005.9 hPa | - | - | - | - |
| 1778042547 | 16.11° C | 70% | 1005.6 hPa | - | - | - | - |
| 1778042511 | 16.11° C | 70% | 1005.6 hPa | - | - | - | - |
| 1778042210 | 16.11° C | 69% | 1005.6 hPa | - | - | - | - |
| 1778041910 | 16.11° C | 68% | 1005.7 hPa | - | - | - | - |
| 1778041609 | 15° C | 71% | 1005.7 hPa | - | - | - | - |
| 1778041350 | 14.44° C | 69% | 1005.7 hPa | - | - | - | - |
| 1778041309 | 14.44° C | 69% | 1005.7 hPa | - | - | - | - |
| 1778041076 | 13.89° C | 67% | 1005.6 hPa | - | - | - | - |
| 1778041008 | 13.89° C | 67% | 1005.6 hPa | - | - | - | - |
| 1778040707 | 13.89° C | 66% | 1005.6 hPa | - | - | - | - |
| 1778040410 | 13.89° C | 66% | 1005.6 hPa | - | - | - | - |
| 1778040170 | 13.89° C | 65% | 1005.5 hPa | - | - | - | - |
| 1778040106 | 13.89° C | 65% | 1005.5 hPa | - | - | - | - |
| 1778039806 | 13.89° C | 64% | 1005.5 hPa | - | - | - | - |
| 1778039505 | 13.89° C | 64% | 1005.5 hPa | - | - | - | - |
| 1778039205 | 14.44° C | 63% | 1005.3 hPa | - | - | - | - |
* Rain since midnight (hover to see other rain measurements)
** Current wind speed in m/s (hover to see current wind gust speed)